Retour au catalogue

KUIPER-00008

ActifCommunicationsLEO
NORAD 63724·PAYLOAD·🇺🇸 United States

Lancé Apr 28, 2025 depuis Cape Canaveral Space Force Station

Loading…

Prochains Passages (prochaines 24 heures)

TLE

FraisSource: CelesTrak SupGP

Époque: Sep 14, 2026, 23:06 UTC

1 63724C 25088A   26257.96262732  .00001190  00000+0  15574-3 0  2576
2 63724  51.9006 331.0446 0000447  93.7740 308.9827 14.79925786    17

Suivez KUIPER-00008 en temps réel avec AllMySat

Download on the App Store